SCP
0 0 0 0 0 0 0 0 0 0 0 0 0 0 0 0 0 0 0 0 0 0 0 0 0 0 0 0 0 0 0 0 0 0 0 0 0 0
0 0 0 0 0 0 0 0 0 0 0 0 0 0 0 0 0 0 0 0 0 0 0 0 0 0 0 0 0 0 0 0 0 0 0 0 0 0
0 0 0 0 0 0 0 0 0 0 0 0 0 0 0 0 0 0 0 0 0 0 0 0 0 0 0 0 0 0 0 0 0 0 0 0 0 0
0 0 0 0 0 0 0 0 0 0 0 0 0 0 0 0 0 0 0 0 0 0 0 0 0 0 0 0 0 0 0 0 0 0 0 0 0 0
0 0 0 0 0 0 0 0 0 0 0 0 0 0 0 0 0 0 0 0 0 0 0 0 0 0 0 0 0 0 0 0 0 0 0 0 0 0
0 0 0 0 0 0 0 0 0 0 0 0 0 0 0 0 0 0 0 0 0 0 0 0 0 0 0 0 0 0 0 0 0 0 0 0 0 0
0 0 0 0 0 0 0 0 0 0 0 0 0 0 0 0 0 0 0 0 0 0 0 0 0 0 0 0 0 0 0 0 0 0 0 0 0 0
0 0 0 0 0 0 0 0 0 0 0 0 0 0 0 0 0 0 0 0 0 0 0 0 0 0 0 0 0 0 0 0 0 0 0 0 0 0
0 0 0 0 0 0 0 0 0 0 0 0 0 0 0 0 0 0 0 0 0 0 0 0 0 0 0 0 0 0 0 0 0 0 0 0 0 0
0 0 0 0 0 0 0 0 0 0 0 0 0 0 0 0 0 0 0 0 0 0 0 0 0 0 0 0 0 0 0 0 0 0 0 0 0 0
0 0 0 0 0 0 0 0 0 0 0 0 0 0 0 0 0 0 0 0 0 0 0 0 0 0 0 0 0 0 0 0 0 0 0 0 0 0
0 0 0 0 0 0 0 0 0 0 0 0 0 0 0 0 0 0 0 0 0 0 0 0 0 0 0 0 0 0 0 0 0 0 0 0 0 0
0 0 0 0 0 0 0 0 0 0 0 0 0 0 0 0 0 0 0 0 0 0 0 0 0 0 0 0 0 0 0 0 0 0 0 0 0 0
0 0 0 0 0 0 0 0 0 0 0 0 0 0 0 0 0 0 0 0 0 0 0 0 0 0 0 0 0 0 0 0 0 0 0 0 0 0
0 0 0 0 0 0 0 0 0 0 0 0 0 0 0 0 0 0 0 0 0 0 0 0 0 0 0 0 0 0 0 0 0 0 0 0 0 0
0 0 0 0 0 0 0 0 0 0 0 0 0 0 0 0 0 0 0 0 0 0 0 0 0 0 0 0 0 0 0 0 0 0 0 0 0 0
0 0 0 0 0 0 0 0 0 0 0 0 0 0 0 0 0 0 0 0 0 0 0 0 0 0 0 0 0 0 0 0 0 0 0 0 0 0
0 0 0 0 0 0 0 0 0 0 0 0 0 0 0 0 0 0 0 0 0 0 0 0 0 0 0 0 0 0 0 0 0 0 0 0 0 0
0 0 0 0 0 0 -0 0 0 0 0 0 0 0 0 0 0 0 0 0 0 0 0 0 0 0 0 0 0 0 0 0 0 0 0 0 0 0
0 0 0 0 0 0 0 0 0 0 0 0 0 0 0 0 0 0 0 0 0 0 0 0 0 0 0 0 0 0 0 0 0 0 0 0 0 0
0 0 0 0 0 0 0 0 0 0 0 0 0 0 0 0 0 0 0 0 0 0 0 0 0 0 0 0 0 0 0 0 0 0 0 0 0 0
0 0 0 0 0 0 0 0 0 0 0 0 0 0 0 0 0 0 0 0 0 0 0 0 0 0 0 0 0 0 0 0 0 0 0 0 0 0
0 0 0 0 0 0 0 0 0 0 0 0 0 0 0 0 0 0 0 0 0 0 0 0 0 0 0 0 0 0 0 0 0 0 0 0 0 0
Wind_Speed
12 13 10 8 8 7 6 8 8 7 8 7 6 8 7 7 9 9 9 11 11 10 9 8 7 6 5 4 3 3 3 4 5 7 9 10 11 13
10 12 11 8 8 7 7 7 7 7 6 6 5 6 8 6 8 8 8 10 11 11 10 9 8 6 5 4 3 3 4 4 5 7 9 10 11 12
12 13 13 11 8 7 7 7 7 6 6 4 3 6 8 8 8 7 7 7 7 10 10 9 8 7 6 5 4 4 4 4 5 7 8 9 10 11
13 13 13 10 11 9 8 9 7 6 6 7 5 5 7 8 8 8 6 5 6 9 9 9 8 7 6 5 4 4 3 4 5 6 7 8 10 11
13 14 14 13 12 10 10 9 7 6 6 7 6 4 4 6 7 6 6 5 4 6 8 8 8 7 6 5 4 3 3 3 4 5 6 8 9 11
13 13 14 14 13 13 10 10 8 8 8 7 6 6 5 6 6 6 6 5 4 4 5 5 6 7 7 6 5 4 3 3 3 5 6 7 8 10
12 13 14 14 14 12 10 11 10 8 7 7 7 6 6 7 7 6 6 5 4 4 4 4 4 4 4 5 5 4 3 2 3 4 6 7 8 10
11 12 12 13 13 14 14 14 13 12 11 9 7 9 9 9 7 7 7 6 4 4 4 3 3 3 3 2 3 4 3 2 3 4 5 7 8 9
10 10 9 10 12 11 12 12 11 12 12 10 10 10 10 10 10 9 8 6 4 5 4 3 3 3 2 2 5 4 3 2 2 3 5 6 7 9
10 10 10 11 10 11 11 10 10 9 9 9 8 9 8 9 9 8 8 6 5 3 3 3 2 2 1 2 5 4 3 2 1 3 5 6 7 9
8 9 10 11 12 13 12 11 9 7 6 7 7 8 11 11 10 8 8 6 4 3 2 2 2 1 1 2 3 3 3 2 1 2 4 6 8 9
6 8 11 12 14 14 13 12 11 9 9 8 8 9 9 11 11 8 8 7 5 4 4 3 3 2 1 1 1 1 2 2 1 2 4 6 8 6
5 5 7 13 14 14 12 10 12 11 10 9 8 7 6 6 5 4 3 4 5 4 5 4 3 2 2 2 1 1 1 1 1 1 2 5 7 7
5 5 7 12 12 12 10 13 16 13 8 8 8 7 6 6 5 5 5 5 4 4 7 5 3 4 3 2 2 1 1 1 1 2 2 4 4 5
4 7 9 11 12 11 14 17 14 9 8 8 8 6 5 7 7 6 7 7 8 6 4 3 3 4 2 2 2 2 1 1 1 2 3 3 3 3
5 7 9 11 9 11 12 11 8 8 8 8 7 7 7 7 6 5 6 6 5 4 5 4 3 3 2 2 2 2 1 1 1 2 3 3 3 3
4 5 5 7 7 7 7 7 7 7 7 7 8 8 7 6 5 5 5 5 4 4 3 3 5 5 4 2 2 2 1 0 1 2 3 3 2 2
4 6 6 7 7 8 8 7 7 7 7 8 8 8 8 7 6 5 4 5 6 5 4 3 3 3 2 3 2 1 0 1 1 2 2 3 2 2
4 5 6 6 6 7 7 7 7 7 7 8 8 8 8 7 7 6 6 6 6 5 4 4 2 2 2 2 1 2 1 1 1 1 2 2 3 3
4 5 6 6 6 6 7 7 7 8 7 7 8 8 8 8 7 6 6 7 6 6 4 3 2 1 1 2 2 1 2 1 1 1 2 3 2 3
4 5 5 6 6 6 6 7 8 8 8 8 7 8 8 8 7 6 6 9 7 6 5 3 2 3 3 3 3 1 1 3 3 2 2 2 2 2
4 4 5 5 6 6 6 7 7 8 8 7 7 7 7 7 8 8 8 7 6 5 5 4 4 2 1 2 3 2 1 2 2 1 2 3 2 2
4 4 5 5 6 6 6 7 8 7 7 7 7 7 7 7 7 7 7 7 7 7 7 5 3 2 2 3 3 2 2 1 1 2 2 3 4 5
Wind_Direction
218 219 220 217 212 215 207 200 194 197 204 198 189 189 186 189 175 186 188 181 186 184 182 182 181 185 197 215 235 262 287 306 312 314 316 319 320 323
215 216 215 214 209 208 206 209 209 202 206 194 190 178 173 179 178 185 184 171 180 184 183 182 183 186 193 203 219 247 274 295 306 311 315 318 322 325
213 214 213 208 205 205 204 205 207 198 194 189 181 175 174 178 173 179 180 182 178 180 184 184 187 187 192 202 218 240 265 288 301 309 314 320 325 327
211 211 210 204 203 203 201 201 200 195 185 181 178 168 180 178 174 174 174 180 179 170 179 184 186 188 193 203 219 238 264 286 298 308 316 323 326 327
210 210 207 202 201 201 198 198 193 186 176 174 175 164 158 165 164 165 167 167 164 166 174 182 184 190 196 202 214 230 249 273 293 309 320 324 326 326
212 210 206 204 201 198 196 193 188 180 171 166 165 161 155 161 162 164 166 168 167 167 175 180 185 193 199 202 209 215 227 259 292 310 320 325 326 326
212 208 207 203 202 199 194 188 184 180 173 168 170 165 164 167 175 170 170 159 162 170 172 176 181 192 197 198 198 204 220 254 292 309 319 324 327 328
209 203 200 197 195 194 195 192 190 186 180 178 181 179 180 177 169 165 157 160 173 169 172 179 182 193 192 187 185 204 216 250 293 312 322 327 329 329
206 196 195 193 191 188 182 181 192 193 191 188 186 184 180 177 169 167 170 169 160 150 160 173 183 198 180 175 180 198 214 242 288 314 324 326 328 327
202 194 191 190 189 181 177 182 189 190 189 190 190 182 173 165 168 165 153 125 98 129 161 164 171 186 168 176 175 194 205 217 280 313 322 327 328 325
199 192 186 184 176 171 172 174 172 171 153 146 147 144 140 145 147 140 144 144 144 155 171 152 144 145 178 183 163 183 195 205 266 319 329 331 330 324
189 183 179 178 174 173 174 170 169 167 155 142 134 129 137 139 144 155 159 159 147 156 166 152 144 146 160 171 167 180 181 181 251 316 330 333 333 322
179 177 176 172 175 177 175 173 167 158 153 148 142 136 133 135 137 131 137 159 158 149 156 152 149 157 148 149 182 211 225 258 276 291 314 331 331 326
184 179 171 167 169 171 169 156 149 146 146 146 144 143 140 136 123 107 94 78 76 119 150 148 146 159 146 149 169 190 244 271 300 312 319 323 321 325
173 166 165 162 159 159 152 147 147 148 148 148 149 146 136 130 122 108 95 91 80 79 101 108 129 143 138 149 159 178 219 247 288 309 317 320 322 323
142 140 147 150 147 142 145 148 151 152 150 146 140 134 129 131 132 130 129 123 103 82 61 70 95 119 119 132 160 182 207 210 267 315 318 314 317 320
146 144 147 148 149 148 147 148 146 144 140 138 139 138 136 135 134 134 134 128 119 126 105 77 69 68 67 99 138 147 144 344 311 326 314 313 324 334
148 151 154 154 152 152 152 148 145 146 146 144 144 143 144 143 139 137 136 130 126 126 123 125 115 99 94 61 30 156 110 11 338 319 308 311 328 347
151 156 157 153 148 149 151 149 148 147 146 146 146 146 145 144 144 145 141 133 129 129 133 143 144 131 130 121 70 352 313 334 326 323 325 321 320 330
155 159 156 149 145 147 149 149 146 145 147 148 147 147 146 145 147 149 147 142 138 134 135 145 149 138 125 136 134 78 339 313 318 328 335 329 318 303
151 153 150 148 146 148 149 148 148 150 151 151 149 148 148 146 146 148 145 144 140 141 146 144 106 93 94 107 111 109 43 13 346 323 329 331 331 331
149 148 149 148 150 152 150 147 146 149 151 150 149 148 149 148 147 149 149 149 146 138 128 118 123 119 106 117 115 112 80 28 34 10 340 332 329 337
150 149 149 150 151 152 152 150 149 150 151 150 148 147 147 145 144 144 143 141 136 132 128 127 117 85 84 109 112 109 95 64 54 48 37 356 323 311